Location: El Carrer d�Abaix
(41.5797°N, 2.1791°E)
Time: 10:26:32
(UTC+00:00)

STARLINK-1378 - Pass Details

Date: 01 October 2020
Orbit: 549 x 550 km, 53.0° (Epoch: 21 October)

Event Time Altitude Azimuth Distance (km) Brightness Sun altitude
Exits shadow 03:23:17 41° 47° (NE) 800 4.8 -27.4°
Drops below altitude 10° 03:26:04 10° 51° (NE) 1,824 7.2 -26.9°
Sets 03:28:18 0° 52° (NE) 2,720 8.3 -26.6°
